GFSSW_850_temp_021.txt.gz
Temp
16 17 17 17 17 17 17 18 18 18 18 18 18 19 19 19 20 20 20 20 20 20 20 19 19 19 19 19 18 18 12 14 17 18 19 19 18 20 20 20 20 20 20 20 20
16 16 17 17 17 17 17 17 17 18 18 18 18 18 19 19 20 20 20 19 19 19 19 19 19 19 19 18 18 16 12 15 17 17 18 18 18 18 19 19 18 19 19 19 19
16 16 16 17 17 17 17 17 17 17 17 18 18 18 18 19 19 20 20 19 20 19 19 19 18 18 18 17 17 15 14 15 17 18 18 18 17 17 17 16 19 17 19 19 20
16 16 16 16 16 16 17 17 17 17 17 17 18 18 18 18 18 19 20 20 19 19 19 18 18 17 16 16 17 16 17 17 18 18 17 17 18 17 17 19 18 18 18 19 19
15 15 16 16 16 16 16 16 16 17 17 17 17 18 17 17 18 19 19 19 19 19 18 18 17 17 16 16 17 16 16 17 18 18 17 17 17 16 18 20 18 18 17 18 17
15 15 15 16 16 16 16 16 16 16 17 17 17 17 16 15 18 18 18 18 18 18 17 17 17 17 17 16 16 16 16 16 18 18 17 16 15 17 19 18 17 17 18 16 15
15 15 15 15 15 15 15 15 16 16 16 16 16 16 15 17 18 18 17 17 17 17 17 17 17 17 16 16 16 16 14 13 15 16 15 16 16 14 20 17 17 17 16 15 15
14 14 15 15 15 15 15 15 15 15 16 16 16 16 16 17 17 17 16 17 17 17 16 16 16 16 16 16 15 14 13 13 16 15 16 16 15 16 19 17 15 13 12 12 13
14 14 14 14 14 14 14 14 15 15 15 15 15 15 16 16 16 16 16 16 16 16 15 15 16 15 15 12 11 11 12 12 13 15 15 15 14 16 16 16 12 10 9 10 10
14 13 13 13 13 13 13 14 14 14 14 14 14 14 15 16 16 16 15 15 15 15 15 15 15 10 8 10 11 12 11 12 13 15 15 15 13 12 17 14 12 8 8 8 8
13 13 12 12 12 12 12 13 13 14 13 16 15 15 15 15 15 15 15 14 14 14 12 12 10 10 10 10 13 13 12 13 12 13 14 12 11 11 14 12 8 7 6 6 7
12 12 11 12 12 12 12 12 13 14 13 15 15 15 15 15 14 14 14 14 13 12 10 10 10 12 11 10 11 11 12 10 11 12 12 11 12 11 11 9 9 6 5 5 5
11 11 10 11 11 11 12 12 13 13 12 13 14 13 13 13 13 13 13 13 12 10 9 10 13 11 12 11 11 11 10 11 12 12 12 11 10 11 6 5 5 5 5 5 5
10 10 9 9 9 11 11 12 12 12 9 11 11 12 12 12 12 12 12 13 11 10 9 9 11 12 11 11 10 11 10 11 11 11 10 11 9 10 9 5 3 3 4 4 4
9 8 9 9 10 10 12 12 12 12 10 11 10 11 12 12 10 10 11 12 10 10 10 11 12 10 11 11 11 11 11 10 12 10 10 10 9 9 8 7 3 2 3 3 3
9 8 8 8 9 11 11 12 12 10 9 11 10 10 10 11 10 10 10 11 11 11 10 10 12 11 11 11 10 10 11 9 7 7 7 9 10 9 9 9 4 2 3 3 3
8 8 8 8 9 10 10 11 11 10 12 10 9 9 10 9 9 9 8 8 8 9 9 10 10 11 12 12 11 11 10 9 8 6 8 7 7 10 9 5 5 3 2 3 3
9 8 9 9 9 9 9 9 9 11 10 10 10 9 9 9 9 8 7 8 8 9 8 10 11 9 9 11 10 8 10 8 9 7 8 7 8 10 4 3 5 4 4 3 3
9 8 8 9 9 9 9 9 10 10 10 10 11 10 9 10 10 9 7 8 9 8 11 9 10 10 10 11 11 9 9 9 8 -1 4 8 8 5 3 2 2 2 3 3 3
9 9 9 9 9 9 9 10 10 11 11 10 10 10 9 9 9 8 7 9 10 8 10 11 10 10 10 10 10 10 8 8 5 6 4 7 7 8 4 3 1 1 3 3 3
9 8 9 9 9 8 9 9 9 10 11 11 10 9 9 9 9 7 9 10 9 9 10 9 9 9 10 9 8 8 8 8 7 6 6 4 8 6 6 3 2 2 4 4 5
8 8 8 9 7 8 10 8 9 10 11 10 10 10 9 8 7 8 8 10 10 9 9 9 7 5 7 8 6 8 8 8 8 7 4 6 9 4 6 4 4 4 5 5 5
7 6 6 7 9 7 6 7 8 8 8 8 9 9 9 9 10 7 7 9 9 8 8 8 6 3 7 8 7 7 7 7 5 4 4 6 7 4 4 4 6 6 6 6 6
6 5 5 5 5 8 7 7 7 8 8 8 8 8 8 8 8 9 7 7 7 8 9 10 6 8 9 7 6 6 5 5 6 4 7 7 7 4 4 4 5 6 6 6 6
4 4 4 4 5 6 7 7 7 7 7 7 6 8 8 7 6 7 7 7 6 6 7 7 5 4 5 6 5 6 5 4 4 4 4 5 4 5 4 3 4 5 5 5 4
3 3 3 3 6 5 6 6 7 8 7 7 7 7 8 8 7 6 7 6 6 4 5 4 3 2 2 4 4 4 4 4 5 3 2 3 4 5 4 5 3 4 4 3 3
1 1 3 2 3 5 5 6 6 7 4 5 6 6 5 6 6 6 6 6 6 4 3 3 1 2 5 1 1 2 1 2 4 3 4 4 4 -2 1 1 2 3 2 2 2

GFSSW_850_temp_024.txt.gz
Temp
16 16 16 16 16 17 17 17 17 18 18 18 18 19 19 19 19 20 20 20 20 20 19 19 19 19 19 19 18 18 12 13 16 15 18 18 18 19 19 19 19 19 19 18 18
16 16 16 16 16 16 17 17 17 18 18 18 18 18 19 19 19 20 19 19 19 19 19 19 19 19 19 18 18 15 11 15 15 17 17 18 17 18 18 18 18 19 18 18 18
15 16 16 16 16 16 17 17 17 17 17 18 18 18 18 18 19 19 19 19 19 19 19 19 19 19 18 17 17 14 14 15 17 17 17 17 17 17 17 16 17 17 17 18 18
15 16 16 16 16 16 17 17 17 17 17 17 17 17 18 18 18 19 19 19 19 19 19 18 18 18 15 16 16 16 16 16 17 17 17 16 17 17 16 17 16 17 17 18 18
15 15 16 16 16 16 16 16 16 16 16 16 17 17 17 17 18 18 19 19 19 18 18 18 17 17 16 15 16 15 16 16 17 16 16 16 16 16 18 17 17 17 16 16 16
15 15 15 15 15 15 16 16 16 16 16 16 16 16 16 16 18 18 18 18 18 18 18 17 17 17 16 15 15 15 15 15 17 17 16 15 15 16 16 16 17 17 17 15 14
15 15 15 15 15 15 15 15 15 15 16 16 16 16 16 17 17 17 17 17 17 17 17 17 16 17 16 15 15 15 14 12 15 15 15 15 16 14 16 16 17 16 15 13 13
14 14 14 14 14 14 14 14 15 15 15 16 16 15 16 17 17 16 16 17 16 16 16 16 16 16 16 15 14 14 12 12 15 14 15 15 15 15 16 16 14 13 12 12 12
14 14 14 14 14 14 14 14 14 15 15 15 15 15 16 15 16 16 16 16 16 15 15 15 15 15 14 11 11 10 12 12 12 14 14 15 14 15 15 14 12 10 9 9 10
14 14 14 13 13 13 13 13 14 14 14 14 14 14 15 15 15 15 15 14 15 14 14 15 14 9 8 10 11 11 11 11 12 14 14 14 12 12 14 14 11 8 8 8 9
13 13 13 13 12 13 12 12 13 13 13 16 15 15 15 15 15 14 14 14 14 14 11 12 10 10 10 10 12 12 11 12 12 13 14 12 11 12 14 10 7 6 6 6 7
13 13 12 12 12 12 12 12 13 13 12 15 14 14 15 15 14 14 14 14 13 11 10 9 10 11 11 10 11 11 11 10 10 11 12 11 10 10 10 8 7 5 5 5 5
12 12 11 10 9 10 11 12 12 12 12 13 14 14 13 13 14 13 13 13 11 9 9 10 13 10 11 10 10 9 9 10 11 11 11 11 9 10 5 5 4 4 5 5 6
11 10 9 8 8 10 11 12 12 12 9 10 11 12 12 13 12 12 12 13 11 10 8 9 10 11 10 10 10 10 9 10 11 10 9 10 9 9 7 4 2 3 4 4 5
9 9 7 8 9 10 12 12 12 12 9 11 10 11 11 12 10 9 10 11 9 9 9 11 10 10 10 10 10 11 9 9 10 8 9 10 8 8 7 6 2 2 3 3 4
9 8 8 8 8 10 11 11 12 11 9 10 9 9 10 10 9 9 10 11 11 10 10 9 11 9 10 10 10 9 9 8 6 7 6 9 9 8 7 8 4 2 2 3 3
9 8 8 8 9 9 10 11 10 9 12 9 8 8 9 8 8 8 8 8 8 8 8 10 10 11 11 10 10 10 9 9 8 6 8 7 7 9 8 6 5 3 2 3 3
8 8 8 8 8 9 9 9 9 11 9 9 8 8 9 8 8 7 7 7 7 9 6 8 10 9 9 11 10 8 9 8 9 7 7 6 7 10 4 2 3 4 4 3 3
8 8 8 8 8 8 8 9 11 10 10 9 9 8 8 9 8 7 6 6 7 7 11 8 10 9 9 10 11 9 9 9 7 -2 3 8 8 5 3 2 1 2 3 3 3
8 8 8 8 8 8 8 10 9 11 9 10 11 10 8 8 8 7 6 8 9 7 10 10 11 9 9 10 9 9 8 8 5 7 5 8 7 9 5 4 0 0 2 3 3
8 8 9 8 8 8 9 10 11 11 12 11 11 9 9 8 8 7 8 9 8 7 9 8 10 8 9 8 7 8 8 7 7 6 7 5 8 6 6 3 1 1 3 4 5
8 9 9 9 8 8 9 9 10 10 11 10 10 10 10 8 7 7 8 9 9 8 8 8 7 5 7 7 6 7 7 7 9 7 3 5 9 4 4 3 4 3 5 5 6
8 8 8 8 9 9 8 9 9 9 10 9 9 11 9 9 10 7 7 8 9 8 8 8 6 3 6 8 6 6 6 6 5 4 5 8 8 4 4 3 5 5 6 6 6
6 5 5 6 8 10 9 9 8 8 8 8 8 8 8 8 9 8 7 6 7 8 9 10 6 6 9 7 6 6 5 4 7 8 9 8 9 5 5 4 4 5 6 7 7
5 4 4 6 7 7 10 9 8 7 7 7 6 8 10 7 7 7 6 5 6 6 6 8 5 5 6 7 6 7 6 4 5 7 8 9 7 4 5 3 5 7 6 6 5
4 3 3 3 5 6 8 8 8 8 7 6 7 7 8 8 7 6 7 7 7 4 5 4 5 3 3 4 4 4 5 3 6 6 5 3 4 5 6 6 4 6 5 5 5
2 3 4 3 4 5 6 7 7 7 4 6 7 6 7 7 6 4 6 7 6 5 4 3 2 1 6 1 2 4 3 4 5 3 6 5 6 -1 1 1 3 4 4 4 4

GFSSW_850_temp_027.txt.gz
Temp
15 16 16 16 16 16 17 17 17 17 17 18 18 18 19 19 19 20 20 20 19 19 19 19 19 19 19 19 18 18 13 13 15 14 17 17 18 18 18 18 19 18 17 17 17
16 15 15 16 16 16 16 17 17 17 17 17 18 18 19 19 19 19 19 19 19 19 19 19 19 19 19 18 17 15 12 15 15 15 16 17 17 18 18 17 18 17 17 17 17
15 15 15 15 16 16 16 16 16 17 17 17 17 18 18 18 19 19 19 19 19 19 19 19 19 19 18 17 16 14 15 14 16 17 17 17 17 17 17 16 17 17 17 17 17
15 15 15 15 15 16 16 16 16 16 17 17 17 17 18 18 18 19 19 19 19 19 18 18 18 18 15 15 16 16 15 15 16 17 16 16 17 16 16 16 16 17 16 16 17
15 15 15 15 15 15 16 16 16 17 17 17 17 17 17 18 18 18 19 19 18 18 18 18 18 17 15 15 15 15 15 15 16 16 16 15 16 16 16 15 14 15 15 16 16
15 15 15 15 15 15 15 16 16 16 16 16 16 16 16 16 17 18 18 18 18 18 18 18 18 17 16 15 15 15 15 15 17 16 15 15 14 16 15 14 14 13 14 14 14
14 14 15 15 15 15 15 16 15 15 16 16 16 16 16 17 17 17 17 17 17 17 17 17 17 17 16 14 15 15 15 13 15 14 15 15 13 12 15 13 14 15 15 15 14
14 14 14 14 14 15 15 15 15 15 15 15 15 15 16 17 17 16 16 16 16 17 17 16 16 16 16 15 14 13 11 13 15 14 14 14 15 14 15 15 14 14 13 12 12
14 14 14 14 14 14 14 14 14 14 14 14 14 15 16 15 16 16 15 15 16 15 15 15 15 15 14 11 11 10 13 12 13 13 13 14 15 14 14 13 12 11 10 10 10
13 14 14 13 13 14 14 14 14 14 14 14 14 14 15 15 15 15 15 14 14 14 14 15 14 9 8 11 12 11 11 11 12 14 13 13 13 12 13 12 11 9 8 9 10
13 13 13 13 13 13 13 13 13 13 13 16 15 15 15 15 15 14 14 14 14 14 11 12 10 10 10 10 12 11 11 12 12 12 13 12 11 12 11 10 8 7 7 8 9
13 12 12 12 12 12 12 12 13 12 12 14 14 14 14 14 14 13 13 14 13 10 9 9 9 10 10 10 11 10 11 10 10 11 12 11 10 11 11 8 8 7 6 7 7
12 12 12 11 10 10 11 12 12 12 11 13 14 14 13 14 14 13 13 13 11 8 8 9 12 9 10 9 10 9 10 10 12 10 10 10 9 9 6 5 5 5 5 5 5
11 10 9 8 8 8 10 12 11 12 9 10 10 12 12 13 12 12 12 13 10 10 7 9 10 11 10 10 9 10 8 10 11 10 10 10 10 10 7 5 3 2 3 4 5
8 7 7 7 8 9 12 12 12 11 9 11 9 10 11 12 10 9 10 11 9 9 9 11 9 9 10 9 9 11 7 8 9 8 9 9 9 9 7 8 3 1 3 4 5
7 8 7 7 8 10 11 11 11 10 9 9 8 9 9 10 9 9 10 11 11 9 9 9 10 9 10 9 9 7 8 7 6 7 7 9 9 9 9 9 4 2 3 3 3
8 7 7 7 8 9 10 10 10 9 11 9 8 8 9 8 8 8 8 7 8 8 8 9 9 10 10 8 9 9 9 8 8 7 8 6 7 9 9 6 6 3 3 3 3
7 7 7 7 8 8 9 8 9 11 9 8 7 7 9 8 8 7 6 7 7 8 6 8 9 8 8 9 8 7 9 8 9 7 8 5 8 10 5 3 3 4 5 3 3
8 8 8 7 8 8 8 9 10 10 10 8 9 8 7 8 8 7 6 6 8 7 11 7 9 8 9 9 10 9 9 9 6 -2 4 8 8 8 3 3 2 2 3 3 4
8 8 8 8 7 8 8 9 9 11 9 9 11 9 8 7 8 6 6 7 8 7 9 9 10 8 8 9 8 9 8 9 6 7 5 7 8 10 6 5 1 -0 1 3 4
8 8 8 8 8 8 9 9 10 11 12 10 11 9 8 7 8 6 8 9 8 6 9 8 10 8 8 8 8 7 8 7 8 7 7 5 8 6 7 5 3 2 3 4 5
8 9 9 8 8 9 9 9 11 11 12 10 10 10 10 8 8 7 8 9 9 8 8 8 7 5 7 6 6 7 7 7 8 7 4 5 9 5 5 4 5 4 4 5 6
8 8 8 8 9 9 9 9 10 9 11 11 11 10 10 9 10 8 6 9 9 8 8 7 7 5 6 7 6 6 5 6 5 4 4 7 7 3 3 3 5 5 6 6 6
7 6 7 8 10 10 9 9 9 9 10 10 10 9 9 10 11 7 6 6 8 8 10 10 6 8 12 9 6 5 5 5 7 4 6 9 10 4 4 4 4 5 6 6 6
5 5 5 7 7 9 10 9 9 9 9 10 7 10 11 10 10 9 7 5 6 7 7 9 7 5 7 7 6 7 6 4 6 8 8 9 8 5 5 4 6 7 6 6 7
3 3 4 3 5 6 8 9 9 10 7 7 9 9 10 11 10 9 8 6 6 4 5 5 6 4 4 5 5 5 5 4 6 6 6 7 6 6 8 6 5 6 6 6 6
3 4 4 4 4 5 7 8 8 10 7 9 8 9 8 10 8 5 8 7 6 5 5 5 3 5 7 1 3 5 5 4 5 4 7 5 7 1 3 3 5 6 6 6 5

GFSSW_850_temp_030.txt.gz
Temp
16 16 16 16 16 16 16 17 17 17 17 18 18 18 19 19 19 19 20 20 20 20 20 19 19 19 20 19 19 19 22 21 21 20 21 19 20 18 19 19 18 17 17 18 18
15 16 16 16 16 16 16 16 17 17 17 17 18 18 18 19 19 19 19 19 19 19 19 19 19 19 19 17 17 20 22 21 20 20 21 19 19 19 19 19 19 17 17 17 17
16 15 15 16 16 16 16 16 16 17 17 17 17 18 18 18 19 19 19 19 19 19 19 19 19 19 18 17 17 17 21 19 18 18 18 19 18 18 19 20 19 18 15 16 17
16 15 15 15 16 16 16 16 16 16 16 17 17 17 18 18 20 19 19 19 18 18 18 19 19 18 19 19 16 20 17 17 17 16 16 18 17 18 18 18 17 17 17 16 16
15 15 15 15 15 15 15 16 16 16 16 16 16 17 17 18 18 19 19 19 18 18 18 18 18 17 19 18 17 18 17 16 16 16 16 16 17 18 17 16 16 16 16 16 16
15 15 15 15 15 15 15 16 16 16 16 16 16 16 17 17 18 18 18 18 18 18 18 18 18 18 17 17 18 16 16 17 16 16 15 16 17 15 15 14 14 14 15 15 15
14 14 14 14 15 15 15 15 16 15 16 16 16 16 16 17 18 18 17 17 17 17 17 17 17 17 16 16 14 15 18 18 18 16 17 15 16 17 14 11 11 11 13 14 14
14 14 14 14 14 15 15 15 15 15 15 15 15 16 16 17 17 16 17 17 17 17 17 17 17 17 16 15 15 17 17 19 18 15 15 15 21 17 12 12 12 10 12 13 13
14 14 14 14 14 14 14 14 14 14 14 14 15 15 15 16 15 16 16 15 16 16 16 16 16 15 15 18 18 16 20 18 18 15 16 16 20 16 13 13 13 11 11 10 11
13 13 13 13 13 13 14 14 14 14 14 14 13 14 15 15 15 15 14 14 15 15 14 15 14 16 16 18 19 19 17 16 18 17 15 17 18 16 13 13 14 12 8 7 7
13 13 13 13 13 13 13 13 13 13 13 16 15 15 15 15 15 14 14 14 14 14 16 12 16 16 18 18 18 17 17 18 17 15 15 18 18 19 16 13 13 11 8 7 7
13 13 12 12 12 12 12 12 13 12 13 14 14 14 14 14 13 13 13 14 14 15 13 14 15 18 14 14 15 15 16 17 16 14 15 17 16 18 16 14 13 12 8 6 7
13 12 12 11 10 10 11 12 12 12 12 13 14 14 14 14 15 13 13 13 14 13 14 17 16 13 14 13 14 14 16 17 16 13 13 14 16 17 15 9 7 7 7 5 6
12 12 11 9 7 8 9 13 11 12 14 14 11 12 12 14 13 13 12 13 12 15 13 15 13 13 13 14 15 15 14 14 14 14 15 13 17 17 15 12 7 6 6 5 5
10 11 8 7 8 8 12 12 11 12 13 13 9 10 10 13 10 9 11 12 13 12 13 16 11 12 13 15 13 15 12 13 13 14 13 14 14 17 12 13 10 7 6 5 4
8 10 7 7 7 9 11 11 11 13 12 11 9 10 11 9 9 9 10 11 10 11 11 13 10 12 14 10 12 10 11 11 11 12 12 14 15 17 17 16 12 8 5 4 3
9 10 8 7 7 8 10 9 11 12 13 11 10 10 10 9 9 10 10 11 12 12 12 11 12 11 10 11 10 12 13 13 12 12 13 10 12 17 16 12 11 8 5 4 3
8 8 7 7 7 8 8 10 11 15 15 9 9 9 11 10 9 8 9 11 11 11 11 12 13 11 11 14 13 12 15 15 13 13 14 7 12 15 9 6 5 6 5 3 2
7 8 7 7 7 8 7 9 13 14 16 11 9 10 10 10 10 9 9 12 12 11 14 12 12 9 9 10 13 11 11 13 10 4 11 15 13 13 7 7 5 5 4 3 3
8 8 8 8 7 7 7 10 12 14 13 12 14 13 12 10 10 10 10 11 10 10 12 14 13 9 9 10 9 12 12 11 11 11 12 14 13 17 10 10 6 4 4 3 3
8 8 8 8 8 7 8 9 11 12 12 12 13 13 13 11 12 10 12 11 12 9 11 12 12 9 9 10 12 10 11 11 12 12 13 14 16 14 14 12 9 7 5 4 3
8 8 8 9 8 8 8 9 11 12 11 13 12 14 12 11 11 11 11 14 11 9 10 11 10 10 10 8 7 12 13 12 13 10 10 10 14 8 9 11 9 9 5 4 4
8 8 8 8 9 8 9 10 11 11 12 12 11 12 13 12 12 12 11 11 10 11 11 10 10 10 10 9 7 9 9 12 14 9 11 12 13 7 6 7 7 8 6 6 5
8 8 8 8 9 9 9 9 9 10 11 12 12 12 12 12 12 12 11 9 8 11 11 12 10 12 13 14 12 9 9 9 11 11 12 12 13 9 9 8 8 6 7 5 7
6 6 6 8 9 9 10 10 9 9 10 11 10 12 12 11 12 12 12 7 6 8 8 11 10 12 13 12 11 11 11 9 10 13 12 14 12 11 10 9 10 10 6 5 6
3 3 4 4 5 9 9 9 10 10 9 9 10 10 11 11 12 12 12 11 10 6 7 8 9 10 9 9 9 9 10 9 10 12 12 12 12 13 11 9 7 6 5 6 6
3 3 3 4 4 5 9 9 9 10 10 11 10 10 9 11 12 13 12 12 11 8 6 7 7 6 8 7 5 6 8 9 9 11 11 10 11 7 7 6 7 6 7 7 6

GFSSW_850_temp_033.txt.gz
Temp
16 16 16 16 16 16 16 17 17 17 17 17 18 18 18 19 19 19 19 20 20 20 20 19 19 19 19 19 19 19 24 24 24 24 24 22 23 21 20 21 20 19 18 18 18
15 16 16 16 16 16 16 17 17 17 17 17 18 18 18 18 19 19 19 19 19 19 19 18 20 19 21 20 20 22 24 24 24 25 24 22 22 22 21 22 21 18 17 18 17
15 15 15 16 16 16 16 17 17 17 17 17 17 17 18 18 19 18 19 19 19 19 19 19 19 19 21 20 21 22 24 22 21 21 22 22 21 21 22 22 22 21 17 16 15
15 15 15 16 16 16 16 16 16 17 17 17 17 17 18 18 20 19 19 19 19 18 18 19 19 21 22 22 20 22 20 21 20 19 19 20 21 21 21 20 17 16 15 15 14
15 15 15 15 16 16 16 16 16 16 16 17 17 17 17 17 19 19 19 19 19 18 18 18 20 20 21 21 20 21 20 19 19 17 18 18 20 20 20 16 16 16 15 14 15
14 15 15 15 15 15 16 16 16 16 16 16 16 16 16 18 18 18 18 18 18 18 18 18 19 19 20 20 20 19 19 20 19 19 18 18 20 18 20 15 14 14 13 13 14
14 14 14 15 15 15 15 15 15 15 16 16 16 16 16 18 18 18 17 18 18 17 17 18 18 18 19 19 17 18 19 21 20 19 19 17 19 17 19 14 15 14 13 13 14
13 14 14 14 14 15 15 15 15 15 15 15 15 15 16 17 17 17 17 17 17 17 17 17 17 17 18 16 18 19 19 21 20 18 17 17 22 22 15 15 15 14 13 11 12
13 13 13 13 14 14 14 14 14 14 14 15 15 15 17 16 16 16 16 15 16 16 16 16 16 17 16 19 20 20 21 21 21 19 18 18 22 18 15 16 16 15 14 11 10
13 13 13 13 13 13 14 14 14 14 14 14 14 14 15 15 15 15 15 15 14 15 15 16 17 18 19 20 20 22 20 21 20 19 18 19 19 19 16 16 18 17 14 12 10
13 13 12 12 12 13 13 13 13 13 13 16 16 17 15 15 15 14 14 14 14 15 17 16 18 18 20 20 21 20 20 20 22 19 17 19 20 21 18 16 17 18 15 12 10
12 12 12 12 12 12 12 11 13 12 14 14 14 14 14 15 13 13 14 15 15 17 18 16 16 20 20 19 19 18 18 19 21 18 16 18 19 20 20 18 18 18 16 13 9
10 12 11 11 10 10 11 11 12 12 14 15 14 13 14 14 15 13 14 15 16 17 16 18 19 16 17 17 17 18 18 19 19 16 16 17 17 18 19 19 18 15 16 13 9
9 11 10 8 7 9 10 13 11 12 15 17 13 13 13 14 15 13 14 14 14 17 17 17 18 16 16 17 17 18 19 17 17 16 17 17 17 20 20 16 14 12 12 11 9
9 10 9 8 8 7 12 12 11 12 13 18 12 11 11 14 13 10 11 12 16 15 16 18 14 14 15 17 17 17 16 16 16 15 16 16 15 19 20 19 16 12 11 10 8
9 8 7 6 7 10 11 11 11 13 13 13 11 11 12 13 11 9 10 11 13 15 14 16 12 15 16 12 15 14 14 14 14 15 13 15 16 18 19 16 18 13 10 9 7
9 8 6 7 6 8 10 10 11 13 18 14 12 11 13 12 11 12 11 12 14 13 14 15 14 13 13 13 12 14 14 15 14 13 14 14 15 18 19 15 16 13 10 8 6
9 8 6 6 7 8 8 10 9 14 16 13 13 12 12 12 11 11 11 13 13 15 18 15 15 14 13 15 15 13 15 15 14 15 16 10 13 17 16 12 10 12 9 7 6
9 8 7 7 7 7 8 8 11 14 17 15 12 12 11 11 12 10 12 14 15 15 15 16 16 14 13 14 16 13 13 16 13 7 12 16 16 17 10 9 9 10 8 7 5
8 7 7 7 7 7 8 8 11 15 17 18 14 15 14 12 11 11 13 15 15 14 16 17 16 12 11 11 12 13 15 12 12 12 13 17 17 18 11 12 10 8 7 6 5
8 7 8 7 7 7 8 7 11 14 16 16 15 16 16 15 12 11 15 16 15 13 14 16 15 11 10 11 13 11 12 13 14 15 15 15 18 19 18 15 12 9 8 7 6
7 8 8 7 7 8 8 10 12 12 14 14 15 16 15 16 13 13 14 17 14 12 11 14 14 14 13 12 13 15 14 14 14 11 12 14 16 13 18 17 13 11 8 7 6
6 8 8 7 8 8 8 9 10 11 12 13 13 15 16 15 13 14 15 16 14 13 13 12 11 11 12 11 9 10 12 13 14 11 12 13 16 11 11 13 12 11 8 7 6
6 7 8 8 9 9 8 9 9 10 11 12 13 14 14 15 15 15 15 13 13 13 13 13 12 12 13 16 14 11 11 12 13 12 13 14 16 11 11 11 11 11 8 7 6
5 6 5 8 8 8 9 11 9 9 10 11 11 13 12 12 13 13 14 11 9 10 11 12 10 12 12 13 14 14 12 11 11 13 13 15 15 16 13 12 12 10 9 8 6
3 3 4 4 5 8 8 8 10 11 11 9 10 12 12 12 13 13 13 13 11 8 9 8 9 10 9 11 12 12 13 12 11 12 13 14 15 17 14 13 13 11 9 8 7
3 3 4 3 4 5 8 9 9 11 11 12 11 11 11 12 14 14 14 12 13 10 7 7 7 7 8 9 9 7 9 11 12 12 13 13 14 11 13 11 11 10 8 8 9

GFSSW_850_temp_036.txt.gz
Temp
15 15 15 15 16 16 16 16 16 17 17 17 17 18 18 19 19 19 19 19 20 20 20 20 20 20 20 20 20 20 19 20 24 24 22 22 22 22 21 21 20 19 19 18 18
15 15 15 15 15 15 16 16 16 16 17 17 18 18 18 19 19 19 19 19 20 20 19 19 20 20 21 20 20 21 19 21 22 22 22 22 23 21 21 22 19 18 17 17 17
15 15 15 15 15 16 16 16 16 16 17 17 17 18 18 19 19 19 19 19 19 19 19 19 19 20 21 20 21 22 20 22 21 21 21 22 21 21 21 21 21 20 17 16 16
14 14 15 15 15 16 16 16 16 16 16 17 17 18 18 18 19 19 19 19 19 19 19 19 19 20 21 21 20 19 21 21 20 19 20 21 21 21 21 19 18 18 17 16 15
14 14 14 14 15 15 15 16 16 16 16 17 17 17 18 18 19 19 19 19 19 19 18 18 20 21 20 21 20 20 21 20 19 18 19 19 19 20 20 19 18 18 16 15 15
14 14 14 14 14 15 15 15 16 16 16 16 17 17 17 17 18 18 18 18 19 18 18 18 19 19 20 20 20 19 19 20 19 19 18 18 19 20 20 18 18 16 15 15 15
14 13 14 13 14 14 15 15 15 16 16 16 16 16 16 17 17 18 18 18 18 18 17 18 18 18 19 20 18 18 18 18 19 19 19 18 16 17 19 17 16 15 14 14 14
13 13 13 13 13 14 14 15 15 15 15 15 15 15 16 17 17 17 17 17 17 17 17 18 18 18 18 18 18 18 19 18 18 19 17 17 17 18 19 17 15 15 13 13 13
13 13 13 13 13 13 14 14 14 14 15 15 15 15 15 16 16 16 16 16 16 16 17 17 17 17 17 17 17 18 17 18 17 18 16 15 17 17 16 16 16 15 14 13 13
12 13 13 13 13 13 13 13 13 14 14 14 14 14 15 15 16 16 15 15 15 15 16 16 16 16 15 16 15 18 17 18 19 17 17 15 14 16 16 16 17 16 15 13 12
11 12 12 12 12 12 12 12 13 13 13 16 16 16 15 15 15 15 15 14 15 15 15 16 14 14 16 17 18 18 18 17 19 17 17 16 16 17 17 16 17 17 16 14 12
10 10 12 12 11 11 11 11 13 12 12 14 16 14 14 15 13 13 14 15 15 14 16 14 13 16 18 19 18 17 17 16 18 16 16 15 15 17 18 16 17 17 17 14 12
10 10 10 12 10 10 11 11 12 12 12 15 15 15 14 15 15 14 14 15 15 14 15 15 17 18 17 17 17 16 16 16 17 16 15 14 13 15 16 19 17 17 18 16 13
10 10 10 11 7 9 9 12 12 12 12 15 14 14 13 15 14 16 15 15 15 14 15 15 17 16 16 16 16 15 17 16 16 15 13 14 12 16 17 16 17 17 17 15 11
9 10 10 11 9 9 11 12 12 13 11 15 13 12 12 14 13 11 13 14 14 14 16 16 14 13 14 15 16 16 15 16 16 13 13 14 12 14 16 16 15 12 14 13 11
9 9 9 7 7 8 10 12 11 12 11 13 10 11 11 13 11 9 11 12 13 15 14 14 13 15 15 12 14 13 14 14 14 12 9 12 13 13 16 17 16 12 13 12 10
9 9 8 7 7 7 9 10 9 10 17 13 11 11 12 12 11 11 10 10 12 12 12 13 12 13 13 11 12 14 13 11 10 8 9 13 12 14 15 16 15 12 11 11 9
9 9 9 7 7 7 8 8 6 10 13 13 13 11 11 12 11 10 10 10 11 13 14 13 12 13 11 13 12 11 13 10 11 10 10 9 10 13 11 11 13 12 11 10 8
8 8 8 7 6 7 8 6 8 10 13 14 12 11 11 12 11 10 11 12 13 12 14 15 14 13 12 13 13 11 11 14 11 5 7 11 12 15 9 8 9 10 9 8 7
8 7 7 7 6 6 8 6 8 12 14 14 14 13 12 11 10 10 10 12 13 13 14 16 15 13 10 12 12 12 12 9 9 8 8 12 13 14 9 9 7 8 8 7 7
6 7 8 7 7 7 6 5 9 11 13 12 14 15 15 13 10 9 12 14 14 13 14 15 13 10 10 9 11 10 10 12 12 10 9 10 12 16 13 11 8 8 8 7 6
6 8 8 7 7 8 7 8 10 11 12 13 14 15 15 15 11 11 11 14 15 14 12 13 13 7 9 11 12 13 11 11 10 10 11 8 14 14 14 11 10 9 8 7 7
6 6 7 7 8 8 8 8 8 10 10 13 13 14 15 15 14 12 12 14 15 13 12 12 9 9 10 9 9 9 11 12 13 9 12 10 13 10 10 11 11 9 8 7 7
5 7 6 7 8 9 7 7 8 9 10 12 13 13 13 13 15 14 13 13 13 13 13 13 10 11 12 13 11 9 9 11 12 10 10 12 14 10 10 10 10 10 9 8 7
5 6 7 7 7 8 9 9 8 9 9 11 11 12 11 11 12 13 13 10 10 12 11 11 8 10 12 13 12 10 9 10 10 11 11 13 13 14 11 9 10 11 9 7 7
3 4 4 4 5 6 8 8 9 9 10 9 10 11 12 11 12 12 13 12 9 8 8 9 8 10 10 11 10 10 11 10 10 11 12 12 13 14 15 13 10 10 8 7 7
2 3 3 5 6 6 4 6 8 10 11 11 10 10 10 11 12 13 14 13 11 8 7 6 7 6 9 9 8 8 9 10 11 11 11 10 13 12 13 10 10 10 9 8 8

GFSSW_850_temp_042.txt.gz
Temp
14 14 15 15 15 15 15 16 16 16 17 17 18 18 18 19 19 19 20 20 20 20 20 20 20 20 21 20 20 20 13 15 18 17 19 20 19 20 20 20 19 18 18 18 16
14 14 14 15 15 15 15 16 16 16 16 17 17 18 18 19 19 19 19 19 20 20 20 20 20 20 20 20 20 17 12 18 18 17 17 19 20 20 20 18 17 17 17 17 16
14 14 14 14 15 15 15 15 16 16 16 17 17 17 18 19 19 19 19 19 19 19 19 20 20 20 20 20 19 17 15 18 18 19 19 19 20 20 19 17 19 18 18 17 16
14 14 14 14 14 15 15 15 16 16 16 17 17 17 18 18 18 19 19 19 19 19 19 19 19 20 18 18 19 18 18 19 18 19 19 19 19 19 19 20 20 20 19 18 17
14 14 14 14 14 14 15 15 15 15 16 16 17 17 18 18 18 18 19 19 19 18 19 19 19 19 17 18 18 17 18 19 18 18 19 19 18 18 19 19 20 19 18 17 17
14 14 14 14 14 15 15 15 15 15 15 16 16 17 17 16 18 18 18 19 19 19 19 19 19 19 19 18 17 17 17 18 18 18 18 17 17 18 18 18 18 18 17 17 16
13 13 14 14 15 15 15 15 15 15 15 15 16 16 16 17 18 18 18 18 18 18 19 18 19 19 18 17 17 17 17 16 16 17 17 17 15 14 19 16 17 16 16 16 16
13 13 13 13 14 14 14 14 15 15 15 15 15 15 16 17 17 17 17 17 18 18 18 18 18 18 18 17 17 16 15 15 16 15 17 16 14 16 17 16 15 15 15 15 16
11 12 13 13 13 14 14 14 14 15 15 15 15 14 16 16 16 16 16 16 17 17 17 17 18 17 17 13 12 12 13 13 15 14 14 14 15 16 15 15 15 15 15 15 15
10 11 11 12 13 13 13 13 13 14 14 14 14 14 15 15 15 15 15 15 16 16 16 16 16 11 10 11 12 13 13 13 15 15 14 13 12 13 14 14 15 15 15 15 15
10 10 10 10 12 13 13 13 13 13 13 16 16 15 15 15 15 14 14 14 15 15 13 15 11 11 12 12 14 14 13 15 15 15 14 12 12 13 15 13 13 14 15 15 15
10 11 9 10 11 12 12 12 13 13 12 15 14 14 15 15 14 14 14 14 14 12 12 11 11 12 12 12 13 13 13 12 13 14 13 13 12 12 13 14 15 16 16 16 15
9 10 9 10 9 11 11 12 13 12 11 13 15 15 15 15 15 14 14 14 12 11 10 10 14 13 13 13 13 12 12 12 14 14 13 13 11 12 13 14 16 17 18 17 17
9 9 9 8 8 10 11 12 12 12 9 10 12 14 14 15 13 15 15 15 12 11 11 11 13 14 12 12 13 12 12 14 14 14 11 12 12 12 13 12 12 16 16 16 15
8 9 8 9 8 9 11 11 11 12 8 12 11 12 12 14 13 11 14 14 11 11 12 12 11 12 12 13 13 13 13 13 13 11 11 11 9 10 12 12 13 16 16 17 15
7 7 8 8 8 8 9 9 9 9 9 12 10 10 11 12 11 10 11 13 13 12 12 12 13 12 13 12 13 11 12 10 8 9 9 11 11 11 12 14 13 14 16 17 16
6 6 7 7 7 8 7 8 5 6 9 10 9 9 10 9 9 10 9 10 11 11 11 12 12 12 12 12 12 12 11 10 9 7 10 9 8 14 13 12 13 14 17 16 15
5 6 6 7 7 8 6 5 6 7 8 10 8 8 9 10 9 9 8 10 10 11 10 11 11 10 10 12 11 10 11 9 10 8 9 9 8 11 11 14 13 15 15 14 13
4 6 6 7 7 7 6 5 9 7 9 9 9 9 8 9 9 9 7 9 10 9 13 9 10 10 10 11 13 10 10 12 10 -0 5 9 10 11 9 10 11 12 11 11 11
3 4 6 6 7 7 6 7 7 8 10 11 12 10 8 8 9 7 7 8 11 10 12 12 11 9 10 12 11 11 10 9 6 7 7 9 9 12 12 11 11 9 9 9 10
3 3 6 8 6 7 6 5 7 9 11 10 11 11 11 8 9 7 9 10 10 9 12 13 12 9 9 9 9 9 9 10 10 7 8 7 11 9 13 12 11 10 14 12 10
2 4 6 7 6 7 8 8 8 8 9 9 11 11 10 10 9 8 9 10 11 10 10 11 11 7 8 9 8 10 11 9 9 8 6 7 14 11 12 11 11 14 16 13 12
2 4 5 6 7 7 8 8 9 8 9 8 9 9 11 10 10 9 8 10 11 10 9 11 9 7 8 8 8 8 9 12 10 6 11 9 14 8 9 11 13 13 17 15 10
2 2 4 5 6 7 7 8 8 9 9 9 10 10 10 11 11 9 8 10 12 11 13 13 9 10 12 12 8 8 8 9 12 11 11 11 14 12 12 12 12 13 15 14 12
1 2 4 4 4 6 6 8 8 8 8 9 9 10 10 10 9 10 10 9 10 10 10 12 9 11 12 11 10 9 10 9 10 12 11 14 13 15 13 11 12 16 15 13 11
0 2 3 4 4 5 6 6 4 9 9 8 8 9 10 10 11 10 10 10 10 8 10 9 10 10 9 10 8 10 8 9 10 11 11 12 12 13 14 15 12 14 15 13 13
-1 0 1 4 4 4 4 6 6 6 5 7 8 8 9 9 10 12 12 11 10 10 9 7 9 8 9 9 7 8 10 9 9 11 11 10 13 9 11 11 12 13 13 14 15

GFSSW_850_temp_045.txt.gz
Temp
14 14 14 15 15 15 15 15 16 16 16 17 17 18 18 19 19 19 19 20 20 20 20 20 20 20 21 20 20 20 12 14 16 15 18 19 18 19 19 18 18 18 18 18 16
13 14 14 14 15 15 15 15 16 16 16 17 17 18 18 18 19 19 19 19 20 20 20 20 20 20 20 19 19 16 12 15 16 15 17 18 19 19 19 17 17 17 18 18 17
13 13 14 14 15 15 15 15 15 16 16 17 17 18 18 18 18 19 19 19 19 19 19 19 20 20 19 19 18 16 15 16 18 18 18 18 18 19 18 16 18 19 19 17 17
14 14 14 14 14 14 15 15 15 15 16 16 17 17 18 18 17 18 19 19 19 19 19 19 19 19 17 17 18 18 17 18 18 18 18 18 19 18 19 20 21 20 20 19 18
13 14 14 14 14 14 15 15 15 15 16 16 17 17 17 18 18 18 18 19 18 19 19 19 19 19 16 17 18 17 17 18 18 18 18 18 18 17 18 20 20 19 18 19 18
13 13 14 14 14 14 15 15 15 15 16 16 16 17 17 17 17 18 18 18 18 18 18 19 19 19 18 17 17 17 17 17 17 17 18 17 17 17 19 19 19 19 19 18 18
13 13 13 13 14 14 14 15 15 15 15 16 16 16 17 17 17 17 17 18 18 18 18 18 19 19 18 17 17 17 16 14 16 16 16 17 15 14 19 18 18 18 17 17 17
12 13 13 13 14 14 14 14 14 15 15 15 16 16 17 17 17 17 17 17 17 18 18 18 18 18 18 17 15 15 13 14 15 14 16 16 13 15 18 17 17 16 16 16 16
11 12 12 13 13 14 14 14 14 14 14 15 15 15 16 16 16 16 16 16 16 17 17 17 17 16 16 12 12 11 13 13 13 14 14 14 14 15 15 14 15 16 16 16 16
9 10 11 12 13 13 13 13 14 14 14 14 14 15 16 16 16 16 15 15 16 16 16 16 16 10 9 11 12 13 13 12 13 14 13 13 11 11 14 14 15 15 15 15 16
9 9 10 11 11 12 13 12 13 13 13 16 15 15 15 15 15 14 15 15 15 15 13 13 11 11 11 11 13 13 12 13 14 14 14 12 11 13 14 13 13 15 15 15 16
10 9 9 9 10 11 12 12 13 12 13 15 14 14 14 14 14 14 14 14 14 12 11 11 11 12 12 12 13 13 13 12 11 12 12 12 11 11 12 12 15 16 16 17 17
9 9 9 9 9 10 11 12 12 12 11 13 15 15 15 15 15 15 14 14 12 10 10 10 14 11 12 11 12 11 11 11 13 13 12 11 10 11 13 13 15 16 17 17 18
9 9 9 9 8 9 11 11 11 12 9 10 11 13 14 14 13 15 14 15 11 11 10 10 12 12 11 11 11 11 11 12 12 13 11 12 10 11 12 12 11 16 17 18 18
8 8 8 8 8 9 10 10 11 11 10 12 10 11 11 14 12 11 13 14 10 11 11 12 10 11 11 11 11 12 11 11 12 11 10 10 9 13 12 12 13 15 18 19 19
6 7 7 8 8 8 9 9 10 8 8 10 10 10 10 11 10 10 11 12 12 11 12 11 12 11 12 11 12 10 11 9 7 8 9 11 10 12 12 13 13 14 18 18 18
5 6 7 7 7 8 8 7 6 7 9 10 9 9 10 9 9 9 9 9 10 11 11 11 11 12 12 11 11 12 11 9 9 7 10 8 9 15 13 12 13 15 19 19 17
4 5 6 6 7 7 6 5 6 6 8 8 8 8 9 9 9 8 8 8 9 11 9 11 11 10 10 12 12 10 11 9 10 8 8 8 8 11 10 13 14 16 16 16 15
2 5 5 6 6 7 6 6 7 7 7 8 9 9 8 9 9 8 7 8 10 9 13 10 10 10 10 11 13 10 9 11 11 -0 5 10 10 11 10 9 11 14 14 15 15
1 2 5 6 6 7 6 8 9 8 8 10 11 10 8 7 9 7 7 8 10 10 12 12 11 9 10 12 10 11 9 9 6 8 6 9 9 12 14 11 11 10 14 16 15
1 3 5 7 6 6 7 5 7 8 11 10 11 10 9 8 9 6 8 9 9 8 12 12 11 9 9 8 9 9 9 10 9 7 8 6 12 8 13 12 12 11 18 17 16
1 3 5 6 5 6 6 7 8 7 9 9 10 11 9 9 8 8 9 10 11 9 9 10 10 6 8 8 8 9 10 10 8 8 6 6 14 11 10 11 12 14 18 17 17
0 2 4 5 5 5 7 7 8 8 9 8 9 9 10 11 10 9 8 9 10 9 9 10 9 5 8 8 7 8 8 11 9 6 10 8 13 7 9 10 13 14 17 16 16
-0 0 3 4 4 5 6 6 7 9 8 9 9 9 9 10 11 9 8 9 10 10 11 12 9 9 12 11 8 7 7 9 10 9 11 11 14 13 13 9 11 14 17 16 16
-1 -0 2 3 2 4 4 6 7 7 8 8 8 8 9 9 9 9 8 8 8 9 10 10 8 9 10 11 9 8 8 8 9 11 10 13 13 15 13 10 13 17 17 15 16
-1 -0 2 2 2 4 4 5 5 5 7 7 7 8 8 9 10 10 9 9 9 7 8 8 7 8 8 9 9 8 8 8 9 11 11 12 12 13 13 14 12 15 16 15 15
-1 -1 -1 1 1 2 3 4 5 6 6 5 7 7 8 9 10 11 11 11 10 10 8 7 6 6 8 8 8 7 9 10 9 10 10 10 12 10 13 11 13 13 13 14 15

GFSSW_850_temp_048.txt.gz
Temp
13 13 14 14 14 14 15 15 15 16 16 17 17 17 18 18 19 19 19 19 20 20 20 20 20 20 20 20 20 19 12 13 14 14 18 18 18 18 18 18 17 18 18 18 17
13 13 13 13 14 14 14 15 15 16 16 16 17 17 18 18 18 19 19 19 19 20 20 20 20 20 20 19 19 16 12 14 15 14 17 17 18 18 18 17 17 18 19 18 17
13 13 13 14 14 14 14 14 15 16 16 17 17 17 18 18 18 18 19 19 19 19 19 19 20 20 19 18 17 15 14 15 17 17 17 17 18 18 17 15 18 20 20 19 18
13 13 13 14 14 14 14 14 15 15 16 16 17 17 18 18 17 18 18 19 19 19 19 19 19 19 16 16 17 17 16 17 17 17 17 16 18 17 17 20 20 20 20 20 19
12 13 14 14 14 14 14 15 15 15 16 16 17 17 18 18 17 18 18 18 18 18 19 19 19 18 16 16 17 17 16 17 17 17 17 17 17 17 18 20 19 20 20 19 19
12 12 13 13 14 14 14 14 15 15 16 16 16 17 17 16 17 17 17 18 18 18 18 19 19 19 17 16 16 16 16 16 17 17 17 16 16 17 19 19 19 19 19 19 19
12 12 12 13 13 13 14 14 15 15 15 16 16 17 17 17 17 17 17 17 18 18 18 18 18 18 17 15 16 16 16 14 15 16 16 16 15 14 19 19 18 19 19 18 18
11 12 12 12 12 13 13 14 14 15 15 15 16 16 17 17 17 17 17 17 17 17 18 18 18 18 17 16 15 14 12 14 15 14 15 16 13 14 17 17 17 18 18 18 18
9 10 11 12 12 13 13 13 14 14 15 15 15 16 16 16 16 16 16 16 17 17 17 17 18 16 16 12 11 10 13 13 13 13 13 13 13 14 15 15 16 17 17 17 18
9 9 9 10 11 12 13 13 13 14 14 15 15 15 16 15 16 15 15 16 16 16 16 16 16 10 8 11 12 12 12 12 13 14 12 13 10 11 16 14 15 16 16 16 17
10 10 9 10 10 11 12 13 13 14 13 15 15 15 15 15 15 14 15 15 15 15 13 13 11 11 11 11 13 12 12 13 12 13 13 11 10 11 15 13 14 16 17 17 17
9 9 10 9 9 10 11 12 13 12 12 14 14 14 14 14 14 14 14 15 14 11 11 10 10 11 12 11 13 13 13 11 11 12 13 11 11 11 12 12 15 17 18 18 19
9 10 10 9 9 9 10 11 12 12 11 13 14 14 15 14 15 15 14 14 12 10 10 10 13 11 11 11 12 11 11 11 12 12 10 10 9 10 11 12 15 16 17 18 19
8 8 9 8 8 9 9 10 11 11 9 10 11 13 13 14 13 14 14 15 11 11 9 10 11 12 11 11 11 11 10 11 12 12 10 11 10 10 12 12 11 16 17 18 19
7 8 8 8 8 9 9 10 10 11 9 11 10 11 11 13 12 10 12 13 9 10 10 12 10 10 11 11 11 11 10 10 11 10 10 9 9 11 11 12 13 15 18 20 20
6 7 7 7 7 8 9 9 9 9 9 11 9 9 9 10 10 9 11 12 12 10 11 11 11 10 11 10 11 9 10 8 6 8 8 9 10 11 11 12 13 14 18 19 19
5 5 6 7 7 7 8 6 6 7 8 10 9 8 9 8 9 9 9 9 10 10 10 11 10 11 11 10 10 11 11 10 9 6 9 7 8 15 13 13 11 13 18 18 18
3 5 5 6 7 7 7 6 7 5 8 8 8 8 9 8 9 8 7 8 9 10 8 10 10 9 9 12 11 9 10 9 10 7 9 6 8 11 10 12 15 14 17 18 18
2 4 5 6 6 7 6 7 8 6 8 8 8 8 8 8 8 8 7 7 9 8 11 9 10 9 9 11 13 9 10 11 11 -1 5 10 9 11 10 9 11 13 15 17 18
2 3 4 6 6 6 7 7 8 8 8 9 9 10 8 7 8 7 6 8 9 9 12 12 10 8 10 11 10 10 9 9 6 8 6 9 9 11 14 12 11 9 13 17 17
2 2 4 6 5 5 6 6 7 9 11 9 9 9 8 7 8 6 8 9 8 8 12 11 10 9 9 8 8 9 9 9 9 7 7 6 13 8 12 12 11 12 16 17 17
1 1 4 4 4 5 5 7 7 7 9 9 9 10 8 7 7 6 8 9 10 9 9 10 9 7 8 8 7 8 9 8 8 7 5 6 13 10 9 10 11 13 16 16 17
0 1 4 3 4 4 5 6 7 7 8 8 9 9 9 10 9 8 7 9 10 9 9 9 9 6 8 8 7 7 7 9 8 6 9 7 13 8 10 10 12 12 15 16 16
-1 -1 1 3 3 4 5 5 5 7 7 8 8 8 8 10 10 8 8 7 10 10 11 12 8 8 10 11 7 7 6 8 11 8 11 10 14 13 12 12 11 15 17 16 17
-1 -1 1 1 2 2 3 4 5 5 7 8 8 7 8 8 8 9 8 8 7 8 9 10 8 8 10 9 8 8 8 7 10 11 9 13 12 14 13 12 13 17 18 16 17
-1 -2 1 0 2 2 2 3 3 4 5 7 6 8 7 6 7 7 8 7 9 6 8 8 7 7 7 8 7 7 6 8 8 10 11 11 11 14 15 14 13 14 15 16 16
-1 -1 -1 0 -0 0 1 3 3 4 5 5 5 6 7 8 9 9 8 9 9 9 6 7 7 6 8 8 7 7 7 9 9 10 10 9 12 13 12 12 13 13 14 14 15